カタログに戻る

STARLINK-32417

運用中通信VLEO
NORAD 61673·PAYLOAD·🇺🇸 United States

打ち上げ Oct 26, 2024 から Cape Canaveral Space Force Station

Loading…

次のパス (今後24時間)

TLE

最新Source: CelesTrak SupGP

元期: Sep 15, 2026, 02:27 UTC

1 61673C 24193N   26258.10256944  .00021395  00000+0  68787-3 0  2582
2 61673  53.1588 289.9188 0001190  93.3256 305.0153 15.31697246    11

AllMySatでSTARLINK-32417をリアルタイム追跡

Download on the App Store